Weather History for Zapata, TX

Change the Weather History Date:

Wednesday, September 12, 2012

  Actual Average (KLRD) Record (KLRD)
Temperature  
Mean Temperature 88 °F 84 °F  
Max Temperature 100 °F 94 °F 107 °F (1912)
Min Temperature 77 °F 74 °F 61 °F (1959)
Degree Days  
Heating Degree Days 0 0  
Month to date heating degree days 0  
Since 1 July heating degree days 0  
Cooling Degree Days 24 19  
Month to date cooling degree days 243  
Year to date cooling degree days 3486  
Growing Degree Days 38 (Base 50)    
Moisture  
Dew Point 66 °F    
Average Humidity 49    
Maximum Humidity 76    
Minimum Humidity 29    
Precipitation  
Precipitation 0.00 in 0.11 in 6.48 in (1971)
Month to date precipitation 1.31  
Year to date precipitation 14.30  
Sea Level Pressure  
Sea Level Pressure 29.92 in    
Wind  
Wind Speed 10 mph (SE)    
Max Wind Speed 23 mph    
Max Gust Speed 31 mph    
Visibility 10 miles    
Events      
T = Trace of Precipitation, MM = Missing Value Source: NWS Daily Summary

Daily Weather History Graph

Daily Weather History Graph

Search for Another Location

Airport:

Trip Planner

Search our weather history database for the weather conditions in past years. The results will help you decide how hot, cold, wet, or windy it might be!

Date:

Astronomy

Sep. 12, 2012 Rise Set
Actual Time 7:21 AM CDT 7:44 PM CDT
Civil Twilight 6:58 AM CDT 8:07 PM CDT
Nautical Twilight 6:30 AM CDT 8:34 PM CDT
Astronomical Twilight 6:03 AM CDT 9:02 PM CDT
Moon 3:55 AM CDT (9/12) 5:20 PM CDT (9/12)
Length of Visible Light 13h 09m
Length of Day
12h 22m
Waning Crescent, 13% of the Moon is Illuminated
Sep 12
Waning Crescent
Sep 15
New
Sep 22
First Quarter
Sep 29
Full
Oct 8
Last Quarter

Hourly Weather History & Observations

Time (CDT) Temp. Heat Index Dew Point Humidity Pressure Visibility Wind Dir Wind Speed Gust Speed Precip Events Conditions
12:15 AM 83.1 °F 85.7 °F 66.7 °F 58% 29.98 in 10.0 mi ESE 9.2 mph - N/A   Clear
12:35 AM 82.4 °F 84.8 °F 66.7 °F 59% 29.98 in 10.0 mi ESE 10.4 mph - N/A   Clear
12:55 AM 82.0 °F 84.7 °F 67.3 °F 61% 29.98 in 10.0 mi SE 9.2 mph - N/A   Clear
1:15 AM 81.5 °F 84.2 °F 67.6 °F 63% 29.97 in 10.0 mi ESE 6.9 mph - N/A   Clear
2:35 AM 80.6 °F 83.9 °F 70.2 °F 70% 29.96 in 10.0 mi SE 9.2 mph - N/A   Clear
3:15 AM 79.9 °F - 70.7 °F 73% 29.94 in 10.0 mi SE 6.9 mph - N/A   Clear
3:55 AM 79.7 °F - 71.1 °F 75% 29.93 in 10.0 mi ESE 6.9 mph - N/A   Clear
5:15 AM 78.8 °F - 70.3 °F 75% 29.92 in 10.0 mi SE 4.6 mph - N/A   Clear
5:35 AM 78.4 °F - 70.2 °F 76% 29.93 in 10.0 mi SE 4.6 mph - N/A   Clear
5:55 AM 78.3 °F - 69.8 °F 75% 29.93 in 10.0 mi SE 3.5 mph - N/A   Clear
6:35 AM 77.5 °F - 69.1 °F 75% 29.94 in 10.0 mi SE 5.8 mph - N/A   Clear
6:55 AM 77.4 °F - 68.9 °F 75% 29.94 in 10.0 mi SE 4.6 mph - N/A   Clear
7:15 AM 77.0 °F - 68.9 °F 76% 29.94 in 10.0 mi SE 4.6 mph - N/A   Clear
7:35 AM 77.0 °F - 68.9 °F 76% 29.95 in 10.0 mi Calm Calm - N/A   Clear
7:55 AM 77.7 °F - 68.9 °F 74% 29.96 in 10.0 mi SE 3.5 mph - N/A   Clear
8:35 AM 80.6 °F 83.8 °F 69.4 °F 69% 29.97 in 10.0 mi SE 6.9 mph - N/A   Clear
8:55 AM 82.4 °F 85.8 °F 69.3 °F 64% 29.97 in 10.0 mi SE 9.2 mph - N/A   Clear
9:15 AM 83.8 °F 87.5 °F 69.1 °F 61% 29.98 in 10.0 mi SSE 5.8 mph - N/A   Clear
9:35 AM 85.3 °F 88.5 °F 68.2 °F 56% 29.98 in 10.0 mi SSE 11.5 mph 16.1 mph N/A   Clear
9:55 AM 86.5 °F 89.3 °F 66.9 °F 52% 29.98 in 10.0 mi SSE 13.8 mph 18.4 mph N/A   Clear
10:15 AM 88.2 °F 90.3 °F 65.5 °F 47% 29.98 in 10.0 mi South 9.2 mph - N/A   Clear
10:35 AM 89.6 °F 91.1 °F 64.4 °F 43% 29.98 in 10.0 mi SSE 12.7 mph 17.3 mph N/A   Clear
10:55 AM 90.9 °F 92.0 °F 63.7 °F 40% 29.98 in 10.0 mi SE 8.1 mph 16.1 mph N/A   Clear
11:15 AM 91.2 °F 92.2 °F 63.0 °F 39% 29.98 in 10.0 mi SE 12.7 mph 19.6 mph N/A   Clear
11:35 AM 92.7 °F 93.6 °F 63.0 °F 37% 29.97 in 10.0 mi SSE 15.0 mph 21.9 mph N/A   Clear
11:55 AM 93.2 °F 94.5 °F 63.3 °F 37% 29.96 in 10.0 mi SE 13.8 mph 21.9 mph N/A   Clear
12:15 PM 93.9 °F 95.2 °F 63.3 °F 36% 29.95 in 10.0 mi SE 13.8 mph 19.6 mph N/A   Clear
12:35 PM 94.8 °F 96.2 °F 63.1 °F 35% 29.95 in 10.0 mi SE 10.4 mph 24.2 mph N/A   Clear
12:55 PM 97.0 °F 98.3 °F 62.6 °F 32% 29.94 in 10.0 mi SSE 12.7 mph 20.7 mph N/A   Clear
1:15 PM 97.2 °F 98.6 °F 63.0 °F 32% 29.93 in 10.0 mi ESE 12.7 mph 27.6 mph N/A   Clear
1:35 PM 97.5 °F 98.7 °F 62.6 °F 31% 29.92 in 10.0 mi South 11.5 mph 20.7 mph N/A   Clear
1:55 PM 98.1 °F 99.6 °F 62.4 °F 31% 29.91 in 10.0 mi SE 17.3 mph 27.6 mph N/A   Clear
2:15 PM 99.0 °F 100.5 °F 62.1 °F 30% 29.90 in 10.0 mi SE 16.1 mph 23.0 mph N/A   Clear
2:35 PM 99.1 °F 100.8 °F 62.2 °F 30% 29.89 in 10.0 mi SE 23.0 mph 31.1 mph N/A   Scattered Clouds
2:55 PM 99.7 °F 101.2 °F 62.6 °F 29% 29.89 in 10.0 mi SSE 11.5 mph 23.0 mph N/A   Clear
3:35 PM 100.6 °F 103.3 °F 63.5 °F 30% 29.87 in 10.0 mi SSE 19.6 mph 26.5 mph N/A   Mostly Cloudy
3:55 PM 100.0 °F 102.4 °F 63.7 °F 30% 29.86 in 10.0 mi SE 17.3 mph 24.2 mph N/A   Scattered Clouds
4:15 PM 99.9 °F 102.1 °F 63.3 °F 30% 29.85 in 10.0 mi SE 16.1 mph 25.3 mph N/A   Scattered Clouds
4:55 PM 99.5 °F 101.5 °F 63.1 °F 30% 29.84 in 10.0 mi SE 12.7 mph 26.5 mph N/A   Mostly Cloudy
5:15 PM 99.5 °F 101.5 °F 62.8 °F 30% 29.84 in 10.0 mi SE 13.8 mph 21.9 mph N/A   Overcast
5:35 PM 98.1 °F 100.7 °F 64.2 °F 33% 29.84 in 10.0 mi SE 16.1 mph 31.1 mph N/A   Mostly Cloudy
5:55 PM 97.3 °F 99.4 °F 64.0 °F 33% 29.84 in 10.0 mi SE 13.8 mph 23.0 mph N/A   Scattered Clouds
6:15 PM 97.2 °F 99.1 °F 63.9 °F 33% 29.84 in 10.0 mi SE 17.3 mph 28.8 mph N/A   Clear
6:35 PM 96.3 °F 98.1 °F 63.7 °F 34% 29.85 in 10.0 mi SE 13.8 mph 23.0 mph N/A   Clear
6:55 PM 95.2 °F 96.8 °F 63.9 °F 35% 29.85 in 10.0 mi SE 18.4 mph 25.3 mph N/A   Clear
7:35 PM 92.7 °F 95.3 °F 65.5 °F 41% 29.85 in 10.0 mi SE 12.7 mph 24.2 mph N/A   Clear
7:55 PM 91.8 °F 94.6 °F 66.2 °F 43% 29.86 in 10.0 mi ESE 17.3 mph 23.0 mph N/A   Clear
8:15 PM 91.0 °F 93.4 °F 65.7 °F 43% 29.87 in 10.0 mi SE 16.1 mph 21.9 mph N/A   Clear
8:35 PM 90.5 °F 92.5 °F 65.3 °F 43% 29.88 in 10.0 mi SE 11.5 mph 20.7 mph N/A   Clear
8:55 PM 90.0 °F 92.0 °F 65.1 °F 44% 29.89 in 10.0 mi SE 12.7 mph 20.7 mph N/A   Clear
9:15 PM 89.2 °F 91.3 °F 65.5 °F 45% 29.90 in 10.0 mi SE 17.3 mph 25.3 mph N/A   Clear
9:35 PM 88.7 °F 91.1 °F 66.2 °F 47% 29.91 in 10.0 mi SE 10.4 mph 21.9 mph N/A   Clear
9:55 PM 88.0 °F 91.0 °F 67.3 °F 50% 29.92 in 10.0 mi SE 15.0 mph 21.9 mph N/A   Clear
10:15 PM 87.1 °F 89.5 °F 66.2 °F 50% 29.93 in 10.0 mi SE 15.0 mph 24.2 mph N/A   Clear
10:35 PM 86.0 °F 88.2 °F 66.0 °F 51% 29.94 in 10.0 mi SE 18.4 mph 24.2 mph N/A   Clear
11:15 PM 84.4 °F 86.3 °F 65.7 °F 53% 29.95 in 10.0 mi SE 13.8 mph 20.7 mph N/A   Clear
11:35 PM 83.7 °F 86.0 °F 66.2 °F 56% 29.96 in 10.0 mi SE 15.0 mph 19.6 mph N/A   Clear
11:55 PM 83.1 °F 85.7 °F 67.1 °F 58% 29.97 in 10.0 mi SE 11.5 mph 25.3 mph N/A   Clear